Погода в Сенной Губе

Россия / Республика Карелия     61°59′50″N   35°13′28″E
темп.,
°C
ветер,
м/с
пор.,
м/с
влажн.,
%
обл.,
%
осадки,
мм/ч
давл.,
гПа
погр.,
м
18 мая, вт
вт1800:00+9вюв7791100 0.0 101338
03:00+8вюв799268 0.0 101242
06:00+7юв79100100 1.5 101047
09:00+8юв899792 1.6 100946
12:00+9юв81297100 0.0 100951
15:00+10ююв10148664 0.0 100764
18:00+9ююв10138235 0.1 100762
21:00+9ююв11167870 0.1 100779
19 мая, ср
ср1900:00+7ююв8109070 0.0 100858
03:00+7ююв8139738 0.0 100872
06:00+7юв8119941 0.0 100865
09:00+7юв9149955 0.0 100868
12:00+9ююв912916 0.0 100756
15:00+10ююв913760 0.0 100647
18:00+12юв1218710 0.0 100488
21:00+10ююв101292100 1.9 100752
20 мая, чт
чт2000:00+6юв7910089 0.8 100744
03:00+6ююв79100100 0.9 100748
06:00+6ююв89100100 0.3 100758
09:00+6юв68100100 1.4 100647
12:00+7ююв81110087 0.6 100657
15:00+8юв669595 0.6 100518
18:00+10всв44938 0.9 100211
21:00+8ююв33100100 6.9 100211
21 мая, пт
пт2100:00+7ююв7910078 0.4 100248
03:00+6юв81110099 0.5 100157
06:00+6юв812100100 0.4 100074
09:00+6ююв101510099 0.5 999103
12:00+6ююз91297100 0.5 100082
15:00+6юз798728 0.5 100357
18:00+7ююз7108484 0.0 100453
21:00+7юз913740 0.0 100574
22 мая, сб
сб2200:00+6ююз913834 0.0 100692
03:00+5юз914850 0.0 1007121
06:00+4ююз914875 0.0 1008146
09:00+5ююз812855 0.0 101094
12:00+6ююз7976100 0.0 101153
15:00+6ююз5580100 0.0 101225
18:00+6ююз5579100 0.0 101229
21:00+6ю6687100 0.1 101232